EW7670 Weather Reports


Display with metric or nautical units.
time (UTC)temp
F
wind
direction
speed
MPH
gust
MPH
rain 1hr
in
rain 24hr
in
rain mn
in
humidity
%
barometer
mb
20260506033135 68 200 12.0 24.0 0.00 0.00 0.00 77 1016.4
20260506021700 68 197 12.0 23.0 0.00 0.00 0.00 76 1016.8
20260506020021 68 183 11.0 23.0 0.00 0.00 0.00 77 1016.8
20260506013152 68 175 13.0 22.0 0.00 0.00 0.00 75 1016.7
20260506010118 69 194 15.0 30.0 0.00 0.00 0.00 77 1016.5
20260505234513 69 195 17.0 28.0 0.00 0.00 0.00 78 1015.7
20260505220040 70 213 11.0 20.0 0.00 0.00 0.00 79 1015.7
20260505211657 71 201 13.0 21.0 0.00 0.00 0.00 77 1015.4
20260505204614 71 214 11.0 20.0 0.00 0.00 0.00 77 1015.8
20260505194655 71 236 11.0 19.0 0.00 0.00 0.00 77 1016.3
20260505193106 71 210 11.0 18.0 0.00 0.00 0.00 79 1016.5
20260505183150 71 217 10.0 16.0 0.00 0.00 0.00 79 1016.7
20260505180155 71 208 10.0 16.0 0.00 0.00 0.00 78 1016.9
20260505171516 71 212 10.0 15.0 0.00 0.00 0.00 73 1017.0
20260505170014 71 237 8.0 13.0 0.00 0.00 0.00 74 1017.3
20260505163142 70 210 8.0 13.0 0.00 0.00 0.00 74 1017.3
20260505081548 65 235 10.0 14.0 0.00 0.00 0.00 87 1015.6
20260505070106 65 208 10.0 18.0 0.00 0.00 0.00 84 1015.2
20260505060052 65 195 13.0 20.0 0.00 0.00 0.00 82 1015.5
20260505054533 65 199 15.0 21.0 0.00 0.00 0.00 82 1015.5
20260505053108 65 204 14.0 21.0 0.00 0.00 0.00 81 1015.7
20260505051537 65 182 14.0 20.0 0.00 0.00 0.00 82 1015.8
20260505050120 66 194 14.0 22.0 0.00 0.00 0.00 81 1015.8
20260505041611 66 198 17.0 24.0 0.00 0.00 0.00 80 1016.0
20260505040052 66 198 16.0 23.0 0.00 0.00 0.00 79 1015.9